Theta_e
321 317 314 311 298 296 291 296 300 301 301 310 311 309 308 310 307 301 326 334 333 335 341 344 347 347 345 343 345 346 347 346 346 344 342 338 336 336 334 333 333 334 333 333 333 334 335 335 333
315 318 312 305 293 288 289 296 298 300 304 315 315 315 313 309 320 322 327 334 335 337 340 342 344 345 345 343 345 346 348 346 345 344 340 337 335 334 333 334 335 333 333 333 332 333 333 332 332
310 312 306 299 293 288 289 295 298 302 305 311 311 317 314 314 319 324 329 334 336 337 339 340 344 345 345 344 345 345 347 345 345 343 340 337 335 334 333 333 333 333 333 332 332 331 331 330 330
310 307 302 296 292 295 295 297 299 302 304 310 313 314 318 325 324 328 334 335 334 335 338 339 344 346 346 344 345 345 346 345 345 341 339 337 335 335 333 332 334 333 332 332 332 331 329 327 327
308 302 295 291 293 298 299 302 302 301 302 304 314 309 314 324 328 332 333 334 332 334 335 338 342 344 344 344 345 346 345 345 344 342 339 338 338 336 335 333 333 332 332 331 330 328 327 325 324
302 300 292 289 292 297 299 301 301 300 302 304 311 312 315 323 328 329 332 331 333 333 334 338 335 339 341 342 345 344 345 344 343 341 341 340 338 336 333 333 332 332 330 330 329 327 325 323 322
299 297 292 291 293 296 299 302 299 300 302 303 314 311 316 319 326 329 329 329 332 334 334 336 335 335 335 338 340 342 343 342 341 340 340 338 337 336 335 334 332 331 330 329 327 325 324 323 322
302 298 291 291 293 295 301 302 302 301 303 314 319 311 312 318 325 326 325 326 331 334 333 333 334 334 335 336 333 335 337 338 338 337 335 333 333 333 333 331 333 331 330 328 326 325 323 322 323
304 295 291 293 294 296 295 298 304 306 304 309 318 319 321 323 325 324 324 325 329 332 332 333 334 335 335 334 332 331 332 333 333 332 329 328 329 329 327 326 330 332 330 328 326 324 324 325 324
296 293 291 295 291 291 293 296 301 301 302 303 305 315 325 323 323 323 323 323 325 327 329 331 331 334 335 336 331 331 334 334 334 332 329 329 327 326 325 322 326 329 328 329 327 326 326 323 316
291 292 290 291 292 292 293 295 299 299 299 303 302 306 319 318 322 322 323 324 325 327 328 330 331 333 334 334 331 331 332 332 329 326 327 326 325 321 321 319 321 321 320 320 322 319 316 316 315
285 289 289 290 292 291 290 296 295 298 300 308 309 310 318 320 319 322 323 324 326 326 327 329 332 332 332 334 333 333 330 328 326 325 324 323 320 317 317 317 318 318 318 315 314 313 314 314 315
284 285 287 289 289 288 292 289 292 296 302 307 309 310 319 321 322 322 324 326 327 326 327 328 329 331 331 331 331 330 329 327 326 323 323 322 319 317 316 315 315 316 316 315 313 312 313 314 315
285 286 285 285 285 285 285 285 295 297 291 293 302 307 313 320 323 322 320 323 325 327 327 328 328 330 331 329 329 329 328 325 323 324 322 320 319 317 316 314 315 315 315 314 313 313 313 313 314
286 282 281 282 284 284 286 283 287 288 289 288 291 298 305 320 323 320 322 322 325 326 328 328 328 329 328 328 328 327 325 324 323 322 321 320 318 317 316 316 314 315 315 314 313 313 313 312 313
277 277 273 280 282 283 283 276 283 287 286 286 288 290 294 302 309 322 325 324 323 326 326 328 329 328 328 327 327 326 324 323 322 321 321 320 319 318 315 315 315 316 315 314 313 313 312 312 313
274 269 272 275 281 281 281 276 282 286 285 284 286 288 291 293 300 311 323 326 325 325 326 326 328 327 327 327 326 325 323 322 322 321 321 320 320 319 318 317 316 315 315 314 314 313 312 311 312
271 270 273 272 277 280 278 277 281 284 283 283 285 286 289 291 294 302 312 324 326 323 326 326 326 327 326 326 325 324 323 322 322 321 321 321 321 320 318 317 316 316 315 314 312 312 312 312 313
273 271 270 274 280 278 277 277 280 282 282 282 282 284 287 290 294 299 303 314 325 325 322 325 325 326 325 324 322 321 321 321 321 322 323 322 322 321 319 318 317 316 315 315 315 314 313 313 314
275 273 271 276 280 279 277 276 280 281 280 282 282 283 287 292 297 300 302 304 319 324 323 323 325 325 324 325 324 323 323 323 323 323 323 323 322 321 320 320 318 317 316 315 315 316 314 314 316
274 273 273 274 278 278 274 272 274 279 281 282 285 289 290 291 294 297 299 302 305 317 320 323 323 326 325 326 326 324 324 323 323 323 323 324 323 322 321 321 320 318 318 317 317 317 316 315 317
275 277 277 276 275 267 275 265 272 276 279 280 283 286 287 288 291 295 297 297 305 311 316 319 324 324 326 326 325 324 322 320 322 323 324 324 323 322 322 321 320 319 319 318 318 319 319 318 316
276 279 277 277 273 271 270 267 271 277 276 278 281 284 286 286 288 291 293 297 299 305 308 311 314 317 324 325 325 324 323 324 324 324 322 322 322 322 322 321 320 320 320 320 320 319 319 320 319
279 276 275 273 271 261 268 268 269 272 276 278 281 282 286 284 285 286 289 293 295 299 302 304 308 311 318 323 325 325 324 323 323 322 321 320 321 321 321 322 321 321 321 321 321 321 320 321 321
277 270 262 261 260 262 269 269 271 277 279 279 281 283 283 283 284 286 286 287 290 295 297 300 302 302 309 315 322 325 325 325 324 323 321 319 320 320 320 321 321 321 322 323 323 322 321 322 322
275 271 264 258 262 265 273 268 272 278 281 280 281 281 282 282 283 284 285 286 287 291 294 297 299 300 303 307 311 319 325 324 324 324 322 322 321 321 322 321 322 321 322 323 323 323 321 320 319
273 265 273 265 267 265 268 271 276 279 277 278 279 280 279 280 282 283 286 286 286 287 289 293 296 299 301 303 307 310 319 323 322 322 322 322 322 321 322 322 322 321 321 321 316 311 308 307 306
275 277 266 264 255 256 266 268 269 275 276 277 277 278 279 281 283 283 284 285 285 287 288 290 295 297 298 300 303 306 311 317 322 321 319 321 322 320 319 319 317 314 311 309 307 304 303 301 300
273 269 268 266 267 262 263 267 274 274 276 276 277 277 280 281 282 282 283 284 284 286 287 287 292 295 295 297 299 301 306 310 320 320 320 320 318 316 315 313 310 308 306 305 304 301 300 298 296
275 272 272 263 262 267 268 267 277 277 277 276 278 281 281 282 282 282 283 283 283 284 285 287 289 292 294 295 296 299 303 308 313 319 319 315 311 309 308 307 306 306 303 301 299 297 295 294 292
Wind_Speed
14 9 1 5 5 5 3 7 2 6 5 2 1 3 7 2 5 5 3 7 10 14 13 13 18 18 16 14 13 14 17 18 17 17 15 14 13 12 12 12 11 11 11 11 11 11 10 11 9
8 4 4 3 5 1 6 4 6 2 5 3 1 1 3 5 2 2 5 6 11 14 12 12 17 18 17 16 14 14 16 18 17 16 14 13 12 11 11 12 10 12 12 11 11 10 10 9 8
5 2 4 4 4 6 5 5 6 4 8 3 3 2 2 3 0 6 3 11 12 13 11 11 17 19 18 17 15 14 15 16 17 16 14 14 13 12 11 11 10 11 12 11 11 10 9 7 7
3 5 5 3 5 6 6 3 1 8 4 3 1 6 4 3 3 7 10 12 12 11 10 11 17 19 18 17 16 15 15 16 17 16 15 14 13 12 12 11 10 10 11 10 9 8 7 6 5
4 3 2 3 5 6 5 6 5 6 4 4 4 5 5 2 2 9 12 12 13 10 8 10 14 18 18 17 17 16 16 17 18 15 16 15 14 12 11 11 9 10 9 10 7 6 5 4 3
4 3 3 3 5 6 7 5 4 4 4 7 3 4 5 2 5 6 9 11 11 12 9 10 10 13 16 17 15 15 15 17 18 16 15 15 15 14 13 12 11 9 8 8 7 5 3 1 1
4 3 4 4 3 6 5 3 3 4 6 6 2 3 5 3 5 7 7 6 9 9 10 9 7 8 12 12 12 11 16 17 17 17 15 15 15 14 13 11 12 11 10 8 6 4 2 2 3
4 4 0 3 3 7 5 4 2 2 5 1 2 3 6 3 4 6 7 6 7 9 9 9 8 8 7 7 10 11 14 14 15 17 15 12 12 12 11 11 10 11 10 8 6 4 3 2 4
2 4 1 3 2 5 12 12 9 8 6 5 1 4 4 6 7 6 6 6 10 11 11 9 12 9 7 6 7 10 13 12 13 12 14 12 6 7 9 8 10 11 10 9 7 6 5 2 3
6 3 2 4 3 4 10 5 9 8 10 8 9 4 4 5 7 12 15 14 14 17 16 13 14 14 11 7 7 6 8 7 7 8 9 6 6 6 7 7 10 10 10 9 8 7 5 1 1
5 3 3 4 6 8 8 8 5 5 7 7 8 11 3 3 8 10 12 13 16 13 14 15 14 15 12 9 5 5 5 5 5 6 7 6 5 4 3 3 3 4 6 3 3 2 1 3 2
4 9 7 8 9 9 12 7 9 8 9 14 18 9 4 9 12 15 15 14 17 17 17 16 14 13 15 9 7 7 5 5 5 5 7 6 4 4 4 3 4 4 3 4 4 2 3 4 4
6 5 8 11 12 15 11 13 16 10 13 20 16 11 10 11 15 12 10 9 14 16 18 18 15 12 12 12 9 7 7 6 6 6 6 6 5 5 4 4 4 4 4 4 4 4 4 5 5
3 4 8 5 11 10 19 17 6 9 20 23 22 18 14 12 16 10 9 13 15 17 18 16 18 14 13 11 13 9 7 6 5 6 7 7 6 5 5 4 4 4 4 4 4 4 4 4 3
3 4 8 7 8 7 20 7 5 18 24 21 21 22 17 11 12 11 16 16 17 15 15 18 18 17 17 15 13 9 7 6 6 7 7 9 7 7 6 5 5 5 4 5 3 3 2 3 3
7 7 7 9 10 8 8 6 19 22 23 25 21 17 19 19 12 12 11 9 9 11 17 15 15 17 19 15 12 8 7 7 7 6 6 10 9 8 6 6 5 5 4 4 3 4 3 4 4
8 2 4 10 7 7 10 15 14 18 20 21 20 18 17 18 20 11 11 11 11 14 14 17 18 18 18 17 11 11 11 9 8 7 7 9 10 10 8 7 5 5 4 4 4 4 4 4 4
6 4 6 8 7 6 17 18 22 17 17 21 17 15 15 17 19 17 8 8 9 10 13 14 12 16 17 11 10 9 9 10 10 9 9 11 10 11 9 6 7 7 5 5 4 5 4 4 4
3 3 6 6 9 12 8 23 23 19 18 18 11 18 16 17 16 18 10 4 7 7 10 13 15 18 13 12 12 11 13 10 10 10 13 13 12 12 11 8 8 7 7 8 8 5 6 4 3
1 3 6 12 9 7 16 31 23 16 12 11 21 18 10 10 12 15 16 6 4 4 10 13 14 15 14 12 12 10 11 9 9 9 12 14 14 12 11 11 9 10 7 6 7 7 3 4 5
3 2 5 10 14 11 8 11 6 10 10 8 9 10 10 10 13 13 15 16 6 5 8 9 12 15 15 17 9 6 7 6 9 12 11 13 14 13 14 13 11 10 9 8 8 8 8 5 4
5 2 9 14 13 7 8 10 7 8 15 7 7 9 13 13 12 12 14 18 18 14 10 11 8 11 12 11 11 16 13 12 12 10 9 9 14 14 13 12 12 10 9 10 9 8 7 6 7
7 10 11 9 8 5 4 2 11 11 11 6 10 11 10 12 11 14 15 13 12 10 10 7 7 10 11 10 14 11 15 12 8 9 11 12 10 12 11 12 11 11 9 10 10 8 10 7 7
8 8 7 3 3 3 4 3 8 5 6 11 11 11 8 12 14 14 14 14 12 10 8 7 6 6 9 7 14 18 16 16 11 10 9 9 7 8 10 11 12 11 10 10 10 12 12 11 9
9 6 6 9 8 7 1 6 14 15 13 7 14 8 7 8 12 14 16 17 17 12 13 10 11 12 9 9 9 16 17 16 16 12 9 9 8 7 10 11 11 10 12 12 11 11 11 11 11
4 3 5 4 5 10 14 9 10 8 14 9 7 6 8 8 8 13 16 17 17 14 10 12 13 12 11 8 9 8 16 10 10 10 9 8 8 9 9 11 11 13 12 11 10 8 6 6 5
1 3 3 1 3 4 5 7 13 8 8 8 8 7 9 9 9 13 16 17 16 14 14 11 11 12 9 11 7 8 8 12 10 10 9 8 9 7 10 12 13 13 12 11 8 6 6 6 5
3 3 3 3 4 8 8 9 11 12 14 11 11 12 13 13 17 14 13 15 15 15 14 12 10 10 12 9 7 6 8 8 11 8 8 10 10 9 10 10 9 9 9 10 10 8 8 10 7
3 1 3 3 5 4 8 13 9 10 9 12 13 10 16 18 16 15 14 14 13 14 14 11 9 9 9 10 11 8 7 5 14 10 10 10 6 8 9 10 10 11 11 11 11 10 10 12 13
3 6 5 6 5 4 4 17 6 9 9 7 14 20 20 17 15 12 13 12 12 13 12 13 9 6 7 7 10 10 11 9 11 14 11 9 8 6 6 6 5 5 12 12 14 13 10 10 9
Wind_Direction
329 318 48 40 51 65 236 259 272 315 313 316 249 158 199 177 173 207 328 164 144 152 158 157 159 156 153 160 163 160 160 155 144 136 134 131 128 124 125 129 126 120 118 110 107 111 108 94 87
321 325 41 77 99 103 263 228 237 239 253 237 133 25 274 236 197 129 124 191 155 153 157 157 158 159 154 163 163 170 161 149 142 136 139 135 133 130 133 135 138 129 122 118 116 116 113 109 94
311 19 81 129 148 181 232 225 197 267 280 201 307 179 222 256 221 181 235 150 150 153 157 159 158 161 160 166 168 167 155 148 138 140 147 143 139 141 139 142 145 138 127 128 125 124 124 116 101
9 15 32 104 226 260 213 274 308 331 347 199 8 291 290 205 186 185 139 144 146 152 155 162 165 165 162 168 172 168 164 156 142 152 152 149 147 145 149 149 151 150 138 139 131 130 129 124 115
12 74 31 341 291 273 271 286 295 310 288 270 153 259 267 272 100 131 143 150 150 151 151 163 170 167 166 170 176 174 174 161 150 158 159 157 150 154 150 157 149 152 150 129 143 142 136 124 99
44 86 109 250 256 279 286 270 291 271 267 303 226 143 254 348 138 163 151 155 154 152 155 164 169 166 169 173 180 184 182 167 152 164 162 158 155 160 160 160 155 155 155 161 164 159 155 135 34
109 90 211 205 235 289 263 263 242 266 302 311 321 200 280 235 203 149 146 140 147 152 157 164 162 173 169 177 178 177 174 169 161 157 160 162 160 164 165 165 167 167 172 177 179 181 195 257 336
103 104 355 273 238 276 317 302 295 235 280 248 232 309 293 343 141 122 124 128 147 154 164 170 168 169 175 182 177 171 166 171 166 162 159 162 162 163 158 159 170 181 184 190 193 205 237 289 335
107 69 178 290 321 297 352 360 330 325 307 333 307 215 242 124 124 140 145 144 171 178 174 174 183 182 169 167 185 178 174 171 163 166 162 162 161 161 161 165 177 183 190 197 204 219 239 272 322
74 117 21 51 353 329 318 328 321 336 322 301 308 300 358 138 164 193 183 184 187 188 186 179 191 191 184 181 168 176 178 177 170 168 166 160 162 166 166 175 183 184 190 201 214 226 241 275 256
347 98 343 317 322 333 298 297 317 340 316 258 298 312 314 203 209 211 225 196 197 185 192 189 183 192 188 183 173 177 177 171 165 163 163 163 164 168 167 170 184 188 201 202 219 263 275 246 234
52 26 17 307 319 320 309 284 294 228 249 290 297 280 248 209 218 220 216 209 193 193 195 193 189 185 191 187 184 182 179 167 167 175 164 161 166 171 175 180 189 192 194 201 205 208 229 245 253
63 338 328 330 345 327 317 322 290 275 276 284 293 292 255 225 223 225 229 218 212 204 199 197 193 191 189 188 186 184 186 182 180 170 177 167 170 184 180 192 192 198 185 198 211 217 221 228 232
311 327 317 0 353 325 348 320 312 8 349 342 333 313 287 243 235 225 192 214 208 209 203 194 198 193 193 193 189 186 188 184 174 183 183 179 179 183 187 196 206 204 194 196 207 210 221 240 248
339 49 342 358 343 325 342 3 53 338 339 333 329 321 320 285 258 224 232 212 211 207 200 202 198 195 199 199 195 184 179 182 190 191 187 186 181 186 189 196 206 212 195 202 210 237 236 256 255
31 59 3 306 341 337 38 314 330 329 330 318 317 309 309 303 292 257 230 232 233 216 201 195 198 199 200 197 199 189 182 182 193 196 192 192 193 185 184 196 208 197 185 190 196 207 230 240 238
20 336 328 306 316 319 29 309 307 310 305 304 303 305 295 297 297 277 245 229 206 210 217 199 195 196 197 196 191 189 184 190 193 191 195 193 197 199 197 197 197 191 191 194 201 208 194 214 235
315 357 297 281 305 339 317 294 303 299 298 290 291 293 297 284 287 289 272 234 228 205 211 214 210 205 193 188 188 194 199 198 192 194 196 195 202 201 194 194 196 188 189 205 192 203 200 212 222
212 230 290 270 307 327 320 293 292 298 293 294 296 304 298 285 284 300 293 287 251 208 206 217 204 206 194 191 191 198 205 201 201 197 197 200 204 197 191 196 197 190 197 206 200 190 203 227 216
32 334 308 288 294 314 310 299 295 286 283 300 304 299 311 342 309 318 319 319 337 262 226 212 226 214 206 202 205 199 193 206 203 202 201 202 203 194 192 200 201 193 193 199 198 198 191 217 183
319 257 305 289 317 292 341 278 329 298 302 324 325 318 356 351 347 343 350 336 296 274 278 244 230 226 220 218 206 197 186 196 203 208 208 203 199 191 199 202 200 193 192 201 204 200 204 212 216
317 348 311 310 331 314 59 289 295 304 321 307 313 341 345 347 349 355 10 15 7 356 13 10 349 263 231 220 217 207 203 205 214 207 202 197 197 196 199 201 201 198 196 200 199 199 204 208 227
265 321 297 304 301 355 2 337 278 320 316 312 319 339 337 336 354 360 2 11 12 359 344 350 355 342 282 213 214 215 215 221 208 203 200 195 197 196 193 197 195 201 199 203 201 192 201 206 222
309 322 329 28 12 0 239 68 282 283 271 310 310 316 329 340 342 348 351 352 346 354 357 358 332 306 326 287 228 218 219 220 215 204 198 190 191 192 193 196 202 203 203 202 201 205 207 206 211
26 26 348 359 6 255 316 349 256 288 295 271 295 292 336 330 334 341 339 340 336 340 345 341 338 343 319 335 289 230 228 220 220 209 201 177 188 195 202 194 203 204 207 208 207 208 211 210 213
2 78 125 287 302 289 300 228 258 243 297 294 277 301 322 324 318 328 327 327 325 323 328 332 330 320 328 312 299 309 235 224 223 214 203 203 202 206 196 193 202 210 208 209 207 212 214 193 188
357 44 173 224 289 286 264 282 288 275 292 320 301 307 299 293 309 314 316 318 318 320 320 320 312 302 299 309 313 295 296 224 214 205 203 201 203 192 198 198 201 206 203 196 154 139 129 114 109
161 157 39 20 348 295 284 279 249 298 304 313 318 315 312 308 316 314 309 305 306 309 311 305 299 298 302 302 316 312 311 276 254 197 193 205 214 195 191 193 185 168 155 142 132 125 124 119 111
132 94 83 128 156 242 306 281 224 253 278 292 298 292 299 305 299 302 300 296 296 297 303 295 291 294 306 318 321 306 274 254 235 231 200 205 194 190 181 179 169 159 147 137 123 117 123 122 115
148 203 154 127 257 227 265 264 251 260 274 281 299 308 304 299 294 285 291 293 294 295 301 300 295 290 299 307 302 302 317 314 288 218 207 180 160 130 120 105 70 119 133 122 119 115 118 110 111